Home > Weather > Germantown > Past weeks

Flag for USA Past Weather in Germantown, Maryland, USA — Yesterday and Last 2 Weeks

Now
55 °F

Fog.


Feels Like: 55 °F
Forecast: 60 / 84 °F
Wind: No wind

Location: Frederick Municipal Airport

Current Time: May 26, 2016 at 6:54:58 AM

Latest Report: May 26, 2016 at 6:10 AM


Visibility: 1 mi

Pressure: 30.15 "Hg

Humidity: 100%

Dew Point: 55 °F

Location of GermantownLocation

Past Weather in Germantown — Graph

°F

Germantown Temperature Yesterday

Maximum temperature yesterday: 84 °F (at 2:48 PM)
Minimum temperature yesterday: 52 °F (at 5:25 AM)
Average temperature yesterday: 65 °F

High & Low Weather Summary for the Past Weeks

 TemperatureHumidityPressure
High84 °F (May 25, 2:48 PM)100% (May 11, 5:05 AM)30.31 "Hg (May 11, 5:05 AM)
Low32 °F (May 11, 9:50 AM)32% (May 16, 4:45 PM)29.70 "Hg (May 14, 5:52 PM)
Average57 °F85%30.07 "Hg
* Reported May 11 5:05 AM — May 26 5:50 AM, Germantown, Weather by CustomWeather, © 2016

Note: Actual official high and low records may vary slightly from our data, if they occured in-between our weather recording intervals... More about our weather records

Advertising

Germantown Weather History for the Previous 24 Hours

Scroll right to see more
 ConditionsComfort  
Time TempWeatherWind HumidityBarometerVisibility
5:50 AM
Thu, May 26
55 °FFog.No wind100%30.15 "Hg5 mi
5:30 AM55 °FFog.No wind100%30.14 "Hg2 mi
5:10 AM55 °FFog.No wind100%30.14 "Hg5 mi
4:50 AM55 °FFog.No wind100%30.14 "Hg4 mi
4:25 AM55 °FFog.No wind100%30.14 "Hg1 mi
4:05 AM55 °FClear.No wind100%30.14 "Hg7 mi
3:45 AM57 °FClear.No wind100%30.13 "Hg10 mi
3:25 AM55 °FFog.3 mph100%30.13 "Hg5 mi
3:05 AM57 °FClear.No wind100%30.13 "Hg7 mi
2:45 AM55 °FClear.No wind100%30.13 "Hg7 mi
2:25 AM57 °FFog.3 mph100%30.13 "Hg5 mi
2:05 AM57 °FClear.No wind100%30.13 "Hg10 mi
1:45 AM59 °FClear.3 mph100%30.13 "Hg7 mi
1:25 AM57 °FClear.No wind100%30.14 "Hg7 mi
1:05 AM59 °FClear.No wind100%30.14 "Hg10 mi
12:45 AM59 °FClear.No wind100%30.14 "Hg10 mi
12:25 AM61 °FClear.No wind100%30.14 "Hg10 mi
12:05 AM59 °FClear.No wind100%30.14 "Hg10 mi
11:45 PM
Wed, May 25
61 °FClear.No wind100%30.14 "Hg10 mi
11:25 PM64 °FClear.No wind88%30.14 "Hg10 mi
11:05 PM64 °FClear.No wind83%30.14 "Hg10 mi
10:45 PM64 °FClear.No wind94%30.14 "Hg10 mi
10:25 PM63 °FClear.No wind100%30.14 "Hg10 mi
9:45 PM68 °FClear.6 mph73%30.14 "Hg10 mi
9:25 PM70 °FClear.5 mph69%30.14 "Hg10 mi
9:05 PM68 °FSunny.5 mph73%30.14 "Hg10 mi
8:45 PM70 °FSunny.3 mph69%30.13 "Hg10 mi
8:25 PM72 °FSunny.No wind65%30.12 "Hg10 mi
7:47 PM81 °FSunny.No wind45%30.12 "Hg10 mi
6:47 PM84 °FSunny.3 mph45%30.12 "Hg10 mi
5:47 PM84 °FSunny.7 mph45%30.13 "Hg10 mi
4:50 PM84 °FSunny.7 mph40%30.14 "Hg10 mi
3:55 PM84 °FSunny.5 mph45%30.15 "Hg10 mi
2:48 PM84 °FSunny.8 mph37%30.16 "Hg10 mi
1:48 PM82 °FSunny.6 mph42%30.17 "Hg10 mi
12:48 PM79 °FSunny.12 mph42%30.18 "Hg10 mi
11:47 AM81 °FSunny.6 mph51%30.18 "Hg10 mi
10:47 AM79 °FSunny.7 mph54%30.18 "Hg10 mi
9:47 AM75 °FSunny.7 mph61%30.19 "Hg10 mi
8:55 AM72 °FSunny.6 mph69%30.19 "Hg10 mi
7:55 AM66 °FSunny.6 mph78%30.19 "Hg10 mi
6:47 AM55 °FSunny.No wind100%30.17 "Hg10 mi
6:15 AM54 °FClear.3 mph100%30.16 "Hg10 mi
6:05 AM54 °FClear.3 mph100%30.15 "Hg10 mi
Weather by CustomWeather, © 2016

See weather overviewHow to use our weather pages